OPS 0856 DEB, 24647

Orbit data source: Space-Track

OPS 0856 DEB, 24647 is space debris in LEO originally from a launch on Fri, 19 Aug 1966 UTC launched from the Air Force Western Test Range (AFWTR). Debris objects in space refer to the collection of defunct objects orbiting the Earth. Examples of debris include non-operational satellites, rocket bodies, and fragments generated from explosions, collisions, or faulty payload assembly.

Loading next visibility...
Identifier
24647, 1966-077P
Orbit
LEO
Country
Flag of USUS
Related business
Manufacturer
Unknown
Mission
Spacecraft
Bus & Motor
Unknown
Mass
Unknown
Launch date (UTC)
1966-08-19 (60 years ago)
Launch vehicle
Unknown
Launch site
Air Force Western Test Range (AFWTR)
Object type
Payload
Rocket body
Debris
Shape & HBR
Unknown shape, 0.1 m
Radar Cross Section
Small (<0.1 m²)

Expand to show TLE details & history
Last TLE update: 4 months ago

TLE from 4 months ago
0 OPS 0856 DEB
1 24647U 66077P   25318.61486719  .00022739  00000-0  50588+0 0  9998
2 24647  88.1082  76.2266 1931215 304.7068  48.5293  9.38036673548497
Epoch: 2025-11-14T14:45Z
TLE epoch observation values (Epoch: 2025-11-14T14:45:24.525Z)
Latitude
12.52252°
Longitude
161.33698°
Altitude
2,146.03 km
Speed
7.182 km/s
True Right ascension
05h 06m 34s
True Declination
12° 27' 42"
Sunlit
Object was in full shadow at epoch
Visualization orbit readout
Latitude
Unknown
Longitude
Unknown
Altitude
Unknown
Speed
Unknown
Apparent Right ascension
Unknown
Apparent Declination
Unknown
Sunlit
N/A
Visualization observer readout
Local Sidereal Time
16:03:46
Azimuth
Unknown
Elevation
Unknown
Doppler factor
Unknown
Orbital elements
Apogee altitude
4,950.083 km
Perigee altitude
1,282.858 km
Semi-major axis
9,494.608 km
Eccentricity
0.19312
Inclination
88.1082°
RAAN
76.2266°
Arg. of periapsis
304.7068°
True anomaly
67.85767°
Mean anomaly
48.5293°
Eccentric anomaly
57.90306°
Mean motion
2.346 °/min
Orbital period
153.45 mins
BSTAR
0.50588
Loading maneuver chart data...
Computing Atmospheric mass density...
Loading historical data...
Loading historical data...
Loading historical data...
Loading historical data...
Loading historical data...
Loading historical data...
Loading historical data...

Documentation

Showing up to 5 results
|